| time (UTC) | temp C | wind direction | speed KPH | gust KPH | rain 1hr cm | rain 24hr cm | rain mn cm | humidity % | barometer mb |
| 20260503034517 | 14 | 203 | 6.4 | 12.9 | 0.00 | 0.00 | 0.00 | 47 | 1016.8 |
| 20260503033517 | 14 | 180 | 6.4 | 14.5 | 0.00 | 0.00 | 0.00 | 47 | 1016.6 |
| 20260503032518 | 15 | 180 | 8.0 | 16.1 | 0.00 | 0.00 | 0.00 | 46 | 1016.5 |
| 20260503031517 | 15 | 158 | 8.0 | 20.9 | 0.00 | 0.00 | 0.00 | 45 | 1016.5 |
| 20260503030517 | 15 | 158 | 4.8 | 11.3 | 0.00 | 0.00 | 0.00 | 43 | 1016.6 |
| 20260503025518 | 15 | 158 | 6.4 | 14.5 | 0.00 | 0.00 | 0.00 | 42 | 1016.7 |
| 20260503024519 | 16 | 158 | 6.4 | 12.9 | 0.00 | 0.00 | 0.00 | 40 | 1016.7 |
| 20260503023522 | 16 | 158 | 4.8 | 12.9 | 0.00 | 0.00 | 0.00 | 39 | 1016.6 |
| 20260503022538 | 17 | 135 | 4.8 | 9.7 | 0.00 | 0.00 | 0.00 | 38 | 1016.5 |
| 20260503021517 | 17 | 135 | 4.8 | 11.3 | 0.00 | 0.00 | 0.00 | 37 | 1016.7 |
| 20260503020518 | 18 | 135 | 4.8 | 9.7 | 0.00 | 0.00 | 0.00 | 36 | 1016.4 |
| 20260503015518 | 18 | 158 | 4.8 | 11.3 | 0.00 | 0.00 | 0.00 | 36 | 1016.9 |
| 20260503014518 | 18 | 158 | 4.8 | 9.7 | 0.00 | 0.00 | 0.00 | 35 | 1016.9 |
| 20260503013519 | 18 | 158 | 4.8 | 11.3 | 0.00 | 0.00 | 0.00 | 34 | 1017.0 |
| 20260503012517 | 19 | 158 | 4.8 | 12.9 | 0.00 | 0.00 | 0.00 | 33 | 1017.3 |
| 20260503011518 | 19 | 180 | 3.2 | 9.7 | 0.00 | 0.00 | 0.00 | 32 | 1017.4 |
| 20260503010538 | 20 | 180 | 6.4 | 14.5 | 0.00 | 0.00 | 0.00 | 32 | 1017.5 |
| 20260503005517 | 20 | 135 | 4.8 | 11.3 | 0.00 | 0.00 | 0.00 | 31 | 1017.6 |
| 20260503004519 | 20 | 135 | 3.2 | 8.0 | 0.00 | 0.00 | 0.00 | 31 | 1017.6 |
| 20260503003517 | 20 | 135 | 6.4 | 12.9 | 0.00 | 0.00 | 0.00 | 30 | 1017.7 |
| 20260503002537 | 20 | 135 | 4.8 | 11.3 | 0.00 | 0.00 | 0.00 | 30 | 1017.8 |
| 20260503001517 | 20 | 180 | 6.4 | 11.3 | 0.00 | 0.00 | 0.00 | 30 | 1017.8 |
| 20260503000518 | 20 | 225 | 3.2 | 8.0 | 0.00 | 0.00 | 0.00 | 31 | 1018.1 |
| 20260502235517 | 20 | 203 | 6.4 | 16.1 | 0.00 | 0.00 | 0.00 | 31 | 1018.0 |
| 20260502234517 | 20 | 135 | 3.2 | 9.7 | 0.00 | 0.00 | 0.00 | 30 | 1018.3 |
| 20260502233517 | 20 | 180 | 4.8 | 9.7 | 0.00 | 0.00 | 0.00 | 30 | 1018.2 |
| 20260502232517 | 20 | 203 | 6.4 | 11.3 | 0.00 | 0.00 | 0.00 | 30 | 1018.7 |
| 20260502231518 | 20 | 180 | 4.8 | 8.0 | 0.00 | 0.00 | 0.00 | 31 | 1018.9 |
| 20260502230517 | 20 | 68 | 1.6 | 4.8 | 0.00 | 0.00 | 0.00 | 32 | 1019.0 |
| 20260502225517 | 19 | 180 | 4.8 | 12.9 | 0.00 | 0.00 | 0.00 | 32 | 1019.2 |
| 20260502224538 | 19 | 293 | 8.0 | 22.5 | 0.00 | 0.00 | 0.00 | 33 | 1019.0 |
| 20260502223517 | 19 | 68 | 9.7 | 24.1 | 0.00 | 0.00 | 0.00 | 33 | 1019.1 |
| 20260502222518 | 19 | 113 | 1.6 | 8.0 | 0.00 | 0.00 | 0.00 | 33 | 1019.4 |
| 20260502221518 | 18 | 270 | 4.8 | 8.0 | 0.00 | 0.00 | 0.00 | 33 | 1019.3 |
| 20260502220538 | 20 | 203 | 8.0 | 19.3 | 0.00 | 0.00 | 0.00 | 32 | 1019.8 |
| 20260502215517 | 20 | 180 | 6.4 | 16.1 | 0.00 | 0.00 | 0.00 | 32 | 1019.9 |
| 20260502214558 | 19 | 158 | 4.8 | 11.3 | 0.00 | 0.00 | 0.00 | 33 | 1020.2 |
| 20260502213517 | 18 | 135 | 8.0 | 14.5 | 0.00 | 0.00 | 0.00 | 35 | 1020.3 |
| 20260502212518 | 18 | 135 | 8.0 | 19.3 | 0.00 | 0.00 | 0.00 | 34 | 1020.3 |
| 20260502211517 | 18 | 113 | 6.4 | 14.5 | 0.00 | 0.00 | 0.00 | 35 | 1020.6 |
| 20260502210517 | 18 | 180 | 6.4 | 14.5 | 0.00 | 0.00 | 0.00 | 35 | 1020.9 |
| 20260502205518 | 18 | 180 | 9.7 | 17.7 | 0.00 | 0.00 | 0.00 | 34 | 1021.0 |
| 20260502204518 | 18 | 113 | 6.4 | 14.5 | 0.00 | 0.00 | 0.00 | 35 | 1021.2 |
| 20260502203518 | 18 | 270 | 6.4 | 17.7 | 0.00 | 0.00 | 0.00 | 35 | 1021.3 |
| 20260502202518 | 17 | 113 | 3.2 | 11.3 | 0.00 | 0.00 | 0.00 | 37 | 1021.2 |
| 20260502201517 | 17 | 180 | 8.0 | 16.1 | 0.00 | 0.00 | 0.00 | 36 | 1021.3 |
| 20260502200517 | 17 | 180 | 8.0 | 19.3 | 0.00 | 0.00 | 0.00 | 38 | 1021.3 |
| 20260502195518 | 17 | 180 | 9.7 | 19.3 | 0.00 | 0.00 | 0.00 | 38 | 1021.5 |
| 20260502194518 | 17 | 225 | 3.2 | 9.7 | 0.00 | 0.00 | 0.00 | 37 | 1021.9 |
| 20260502193518 | 17 | 158 | 6.4 | 14.5 | 0.00 | 0.00 | 0.00 | 38 | 1021.9 |
| 20260502192518 | 17 | 158 | 4.8 | 12.9 | 0.00 | 0.00 | 0.00 | 38 | 1022.1 |
| 20260502191518 | 16 | 180 | 4.8 | 11.3 | 0.00 | 0.00 | 0.00 | 38 | 1022.2 |
| 20260502190517 | 16 | 203 | 4.8 | 12.9 | 0.00 | 0.00 | 0.00 | 40 | 1022.1 |
| 20260502185518 | 16 | 225 | 6.4 | 12.9 | 0.00 | 0.00 | 0.00 | 39 | 1022.2 |
| 20260502184558 | 16 | 180 | 8.0 | 14.5 | 0.00 | 0.00 | 0.00 | 39 | 1022.3 |
| 20260502183517 | 16 | 158 | 6.4 | 16.1 | 0.00 | 0.00 | 0.00 | 41 | 1022.7 |
| 20260502182538 | 15 | 180 | 4.8 | 12.9 | 0.00 | 0.00 | 0.00 | 41 | 1022.6 |
| 20260502181517 | 15 | 135 | 6.4 | 17.7 | 0.00 | 0.00 | 0.00 | 41 | 1022.9 |
| 20260502180516 | 15 | 180 | 9.7 | 19.3 | 0.00 | 0.00 | 0.00 | 41 | 1023.1 |
| 20260502170516 | 13 | 135 | 6.4 | 11.3 | 0.00 | 0.00 | 0.00 | 44 | 1023.4 |
| 20260502163516 | 13 | 135 | 1.6 | 9.7 | 0.00 | 0.00 | 0.00 | 49 | 1023.8 |
| 20260502162517 | 13 | 113 | 6.4 | 11.3 | 0.00 | 0.00 | 0.00 | 47 | 1023.5 |
| 20260502161518 | 12 | 135 | 3.2 | 8.0 | 0.00 | 0.00 | 0.00 | 48 | 1023.8 |
| 20260502160518 | 12 | 113 | 4.8 | 12.9 | 0.00 | 0.00 | 0.00 | 47 | 1023.8 |
| 20260502151516 | 10 | 0 | 1.6 | 4.8 | 0.00 | 0.00 | 0.00 | 53 | 1023.6 |
| 20260502150517 | 10 | 0.0 | 3.2 | 0.00 | 0.00 | 0.00 | 55 | 1023.6 | |
| 20260502130516 | 7 | 293 | 1.6 | 4.8 | 0.00 | 0.00 | 0.00 | 72 | 1023.6 |
| 20260502123517 | 6 | 270 | 1.6 | 4.8 | 0.00 | 0.00 | 0.00 | 72 | 1023.3 |
| 20260502122516 | 6 | 270 | 3.2 | 6.4 | 0.00 | 0.00 | 0.00 | 73 | 1023.5 |
| 20260502121517 | 6 | 270 | 4.8 | 8.0 | 0.00 | 0.00 | 0.00 | 74 | 1023.2 |
| 20260502120517 | 6 | 270 | 1.6 | 4.8 | 0.00 | 0.00 | 0.00 | 74 | 1023.2 |
| 20260502115516 | 6 | 270 | 1.6 | 3.2 | 0.00 | 0.00 | 0.00 | 73 | 1023.2 |
| 20260502113516 | 6 | 270 | 1.6 | 4.8 | 0.00 | 0.00 | 0.00 | 72 | 1023.2 |
| 20260502112557 | 6 | 270 | 3.2 | 8.0 | 0.00 | 0.00 | 0.00 | 71 | 1023.7 |
| 20260502111516 | 6 | 293 | 1.6 | 6.4 | 0.00 | 0.00 | 0.00 | 71 | 1023.5 |
| 20260502110516 | 7 | 293 | 1.6 | 4.8 | 0.00 | 0.00 | 0.00 | 70 | 1024.0 |
| 20260502105537 | 7 | 293 | 6.4 | 9.7 | 0.00 | 0.00 | 0.00 | 70 | 1024.0 |
| 20260502104516 | 7 | 293 | 6.4 | 9.7 | 0.00 | 0.00 | 0.00 | 71 | 1023.8 |
| 20260502103517 | 6 | 293 | 4.8 | 9.7 | 0.00 | 0.00 | 0.00 | 71 | 1023.6 |
| 20260502102516 | 7 | 270 | 4.8 | 8.0 | 0.00 | 0.00 | 0.00 | 71 | 1023.8 |
| 20260502101517 | 7 | 293 | 3.2 | 8.0 | 0.00 | 0.00 | 0.00 | 69 | 1023.9 |
| 20260502100517 | 7 | 293 | 4.8 | 9.7 | 0.00 | 0.00 | 0.00 | 70 | 1024.0 |
| 20260502091516 | 7 | 293 | 6.4 | 12.9 | 0.00 | 0.00 | 0.00 | 68 | 1024.1 |
| 20260502090537 | 8 | 293 | 8.0 | 14.5 | 0.00 | 0.00 | 0.00 | 68 | 1024.4 |
| 20260502071517 | 8 | 270 | 6.4 | 11.3 | 0.00 | 0.00 | 0.00 | 69 | 1023.6 |
| 20260502070516 | 8 | 270 | 4.8 | 12.9 | 0.00 | 0.00 | 0.00 | 70 | 1023.6 |
| 20260502065517 | 7 | 270 | 6.4 | 11.3 | 0.00 | 0.00 | 0.00 | 69 | 1023.8 |
| 20260502064516 | 8 | 270 | 6.4 | 11.3 | 0.00 | 0.00 | 0.00 | 69 | 1023.7 |
| 20260502063517 | 8 | 270 | 4.8 | 9.7 | 0.00 | 0.00 | 0.00 | 68 | 1023.5 |
| 20260502062517 | 8 | 270 | 4.8 | 9.7 | 0.00 | 0.00 | 0.00 | 66 | 1023.4 |
| 20260502061516 | 8 | 293 | 4.8 | 9.7 | 0.00 | 0.00 | 0.00 | 65 | 1023.5 |
| 20260502060516 | 9 | 293 | 4.8 | 8.0 | 0.00 | 0.00 | 0.00 | 64 | 1023.8 |
| 20260502055518 | 9 | 293 | 4.8 | 11.3 | 0.00 | 0.00 | 0.00 | 64 | 1023.5 |
| 20260502054539 | 9 | 293 | 4.8 | 8.0 | 0.00 | 0.00 | 0.00 | 64 | 1023.4 |
| 20260502053517 | 9 | 293 | 4.8 | 8.0 | 0.00 | 0.00 | 0.00 | 64 | 1023.2 |
| 20260502052517 | 9 | 293 | 4.8 | 8.0 | 0.00 | 0.00 | 0.00 | 64 | 1023.3 |
| 20260502051519 | 10 | 293 | 4.8 | 9.7 | 0.00 | 0.00 | 0.00 | 63 | 1023.5 |
| 20260502050558 | 10 | 338 | 3.2 | 8.0 | 0.00 | 0.00 | 0.00 | 63 | 1023.4 |
| 20260502045518 | 10 | 338 | 3.2 | 6.4 | 0.00 | 0.00 | 0.00 | 63 | 1023.5 |
| 20260502044517 | 10 | 338 | 1.6 | 4.8 | 0.00 | 0.00 | 0.00 | 64 | 1023.3 |
| 20260502043518 | 10 | 0.0 | 3.2 | 0.00 | 0.00 | 0.00 | 63 | 1022.8 | |
| 20260502042517 | 10 | 338 | 3.2 | 6.4 | 0.00 | 0.00 | 0.00 | 63 | 1022.6 |
| 20260502041518 | 10 | 338 | 4.8 | 9.7 | 0.00 | 0.00 | 0.00 | 63 | 1022.6 |
| 20260502040518 | 10 | 338 | 4.8 | 9.7 | 0.00 | 0.00 | 0.00 | 62 | 1022.6 |
| 20260502035518 | 10 | 0 | 4.8 | 9.7 | 0.00 | 0.00 | 0.00 | 61 | 1022.6 |